GW1943 Weather Reports


time (UTC)temp
F
wind
direction
speed
knots
gust
knots
rain 1hr
in
rain 24hr
in
rain mn
in
humidity
%
barometer
mb
20260510004529 68 195 0.9 1.7 0.00 0.00 0.00 58 1018.7
20260510004027 68 192 0.9 0.9 0.00 0.00 0.00 57 1018.7
20260510003523 69 213 0.9 0.9 0.00 0.00 0.00 56 1018.6
20260510003019 69 211 0.0 0.9 0.00 0.00 0.00 58 1018.8
20260510002514 69 221 0.0 0.0 0.00 0.00 0.00 56 1018.6
20260510002011 69 93 1.7 1.7 0.00 0.00 0.00 55 1018.8
20260510001509 68 199 0.0 1.7 0.00 0.00 0.00 55 1018.8
20260510001006 68 197 0.9 2.6 0.00 0.00 0.00 57 1018.7
20260510000501 69 245 0.9 0.9 0.00 0.00 0.00 55 1019.1
20260509235958 68 191 0.9 1.7 0.00 0.00 0.00 57 1018.8
20260509235455 69 190 1.7 2.6 0.00 0.00 0.00 54 1019.0
20260509234951 70 213 0.9 0.9 0.00 0.00 0.00 53 1019.1
20260509234448 69 196 0.0 1.7 0.00 0.00 0.00 54 1019.0
20260509233946 71 124 1.7 2.6 0.00 0.00 0.00 51 1019.0
20260509233443 70 211 0.0 0.9 0.00 0.00 0.00 53 1019.3
20260509232939 70 126 0.9 1.7 0.00 0.00 0.00 53 1019.4
20260509232438 72 52 1.7 2.6 0.00 0.00 0.00 50 1019.3
20260509231933 71 179 0.9 1.7 0.00 0.00 0.00 52 1019.2
20260509231430 71 215 0.0 0.9 0.00 0.00 0.00 52 1019.3
20260509230928 71 219 0.0 0.9 0.00 0.00 0.00 54 1019.4
20260509230424 71 213 0.9 1.7 0.00 0.00 0.00 52 1019.6
20260509225920 70 214 0.0 1.7 0.00 0.00 0.00 55 1019.4
20260509225417 70 219 1.7 1.7 0.00 0.00 0.00 53 1019.8
20260509224913 71 213 0.0 1.7 0.00 0.00 0.00 56 1020.0
20260509224408 70 232 1.7 1.7 0.00 0.00 0.00 53 1019.9
20260509223906 69 213 0.0 0.9 0.00 0.00 0.00 58 1019.9
20260509223402 68 212 0.0 2.6 0.00 0.00 0.00 56 1019.9
20260509222900 69 222 0.9 1.7 0.00 0.00 0.00 54 1020.2
20260509222355 69 216 0.9 1.7 0.00 0.00 0.00 55 1020.1
20260509221850 69 229 1.7 1.7 0.00 0.00 0.00 54 1020.1
20260509221348 69 221 0.9 1.7 0.00 0.00 0.00 54 1019.8
20260509220843 69 214 0.9 2.6 0.00 0.00 0.00 57 1020.1
20260509220339 70 241 1.7 4.3 0.00 0.00 0.00 55 1020.1
20260509215835 70 219 0.0 0.9 0.00 0.00 0.00 59 1020.0
20260509215332 70 218 0.9 1.7 0.00 0.00 0.00 55 1020.1
20260509214829 70 209 0.9 1.7 0.00 0.00 0.00 58 1020.2
20260509214326 70 211 0.0 1.7 0.00 0.00 0.00 58 1020.0
20260509213823 71 210 0.0 1.7 0.00 0.00 0.00 59 1020.0
20260509213318 70 222 0.9 1.7 0.00 0.00 0.00 57 1020.1
20260509212816 70 214 0.0 0.9 0.00 0.00 0.00 58 1020.4
20260509212314 70 215 0.0 0.9 0.00 0.00 0.00 59 1020.2
20260509211809 69 216 0.0 1.7 0.00 0.00 0.00 58 1020.5
20260509211305 69 210 0.9 4.3 0.00 0.00 0.00 58 1020.4
20260509210802 70 228 0.9 1.7 0.00 0.00 0.00 56 1020.2
20260509210300 70 213 0.0 1.7 0.00 0.00 0.00 57 1020.1
20260509205759 69 214 0.9 1.7 0.00 0.00 0.00 57 1020.5
20260509205254 69 225 0.9 1.7 0.00 0.00 0.00 57 1020.6
20260509204750 69 213 0.0 1.7 0.00 0.00 0.00 59 1020.4
20260509204247 69 215 1.7 2.6 0.00 0.00 0.00 57 1020.6
20260509203743 69 213 0.9 1.7 0.00 0.00 0.00 58 1020.3
20260509203241 70 228 0.9 1.7 0.00 0.00 0.00 57 1020.4
20260509202736 71 241 1.7 2.6 0.00 0.00 0.00 55 1020.6
20260509202232 70 215 0.0 0.9 0.00 0.00 0.00 58 1020.6
20260509201727 70 213 0.9 1.7 0.00 0.00 0.00 60 1020.7
20260509201224 70 212 0.0 0.9 0.00 0.00 0.00 55 1020.8
20260509200720 69 184 0.9 0.9 0.00 0.00 0.00 56 1020.8
20260509200215 68 215 0.0 0.9 0.00 0.00 0.00 57 1020.8
20260509195711 67 205 0.0 0.9 0.00 0.00 0.00 58 1021.0
20260509195206 68 15 0.0 0.0 0.00 0.00 0.00 59 1021.1
20260509194701 69 216 0.0 0.9 0.00 0.00 0.00 59 1021.2
20260509194158 68 217 0.0 0.0 0.00 0.00 0.00 61 1021.4
20260509193654 67 160 2.6 4.3 0.00 0.00 0.00 58 1021.3
20260509193150 68 213 0.0 0.0 0.00 0.00 0.00 63 1021.3
20260509192646 67 200 0.0 1.7 0.00 0.00 0.00 63 1021.3
20260509192141 66 194 0.0 0.0 0.00 0.00 0.00 63 1021.5
20260509191635 65 188 0.0 1.7 0.00 0.00 0.00 62 1021.6
20260509191132 65 207 0.0 2.6 0.00 0.00 0.00 64 1021.6
20260509190629 65 206 0.9 1.7 0.00 0.00 0.00 62 1021.6
20260509190126 66 216 0.9 4.3 0.00 0.00 0.00 62 1021.8
20260509185624 66 220 0.9 1.7 0.00 0.00 0.00 66 1021.6
20260509185119 64 214 0.0 0.9 0.00 0.00 0.00 67 1021.8
20260509184618 64 214 0.0 1.7 0.00 0.00 0.00 66 1021.9
20260509184114 63 218 0.0 2.6 0.00 0.00 0.00 68 1021.8
20260509183610 64 208 0.9 1.7 0.00 0.00 0.00 65 1021.9
20260509183106 64 220 0.0 2.6 0.00 0.00 0.00 71 1021.8
20260509182602 64 225 0.9 0.9 0.00 0.00 0.00 68 1021.8
20260509182059 63 197 0.9 1.7 0.00 0.00 0.00 70 1021.9
20260509181558 62 214 0.0 1.7 0.00 0.00 0.00 73 1022.1
20260509181055 62 220 0.0 1.7 0.00 0.00 0.00 71 1021.9
20260509180550 61 217 0.9 1.7 0.00 0.00 0.00 72 1021.9
20260509180048 62 211 1.7 2.6 0.00 0.00 0.00 71 1021.9
20260509175543 61 216 0.9 1.7 0.00 0.00 0.00 73 1022.0
20260509175040 62 211 0.9 1.7 0.00 0.00 0.00 74 1021.8
20260509174537 61 220 0.0 1.7 0.00 0.00 0.00 74 1022.1
20260509174032 61 243 0.9 0.9 0.00 0.00 0.00 73 1022.2
20260509173526 61 215 0.0 1.7 0.00 0.00 0.00 74 1022.3
20260509173023 60 217 0.9 2.6 0.00 0.00 0.00 75 1022.3
20260509172520 60 211 0.0 1.7 0.00 0.00 0.00 76 1022.3
20260509172016 59 211 0.0 1.7 0.00 0.00 0.00 77 1022.1
20260509171512 59 221 0.0 1.7 0.00 0.00 0.00 78 1022.1
20260509171009 59 222 0.9 0.9 0.00 0.00 0.00 77 1022.3
20260509170504 59 224 0.9 1.7 0.00 0.00 0.00 77 1022.0
20260509170001 58 215 0.9 1.7 0.00 0.00 0.00 78 1022.3
20260509165459 57 212 0.0 1.7 0.00 0.00 0.00 78 1022.5
20260509164955 57 215 0.0 1.7 0.00 0.00 0.00 82 1022.4
20260509164451 57 217 0.0 0.9 0.00 0.00 0.00 83 1022.5
20260509163947 56 228 0.9 1.7 0.00 0.00 0.00 83 1022.5
20260509163445 56 216 0.0 0.0 0.00 0.00 0.00 85 1022.8
20260509162944 56 218 0.0 0.0 0.00 0.00 0.00 86 1022.7
20260509162443 56 215 0.0 0.0 0.00 0.00 0.00 86 1022.6
20260509161938 55 215 0.0 0.0 0.00 0.00 0.00 85 1022.7
20260509161435 55 215 0.0 0.0 0.00 0.00 0.00 85 1022.7
20260509160930 55 215 0.0 0.0 0.00 0.00 0.00 84 1022.6
20260509160426 54 215 0.0 0.0 0.00 0.00 0.00 86 1023.0
20260509155921 54 216 0.0 0.0 0.00 0.00 0.00 88 1022.8
20260509155418 53 217 0.0 0.0 0.00 0.00 0.00 90 1022.8
20260509154915 53 223 0.9 0.9 0.00 0.00 0.00 90 1023.0
20260509154411 53 219 0.0 0.0 0.00 0.00 0.00 92 1023.1
20260509153908 53 217 0.0 0.9 0.00 0.00 0.00 92 1023.0
20260509153405 52 218 0.0 0.0 0.00 0.00 0.00 93 1022.9
20260509152902 51 219 0.0 0.0 0.00 0.00 0.00 95 1022.9
20260509152358 51 217 0.0 0.0 0.00 0.00 0.00 97 1022.9
20260509151856 51 217 0.0 0.0 0.00 0.00 0.00 98 1023.0
20260509151351 50 218 0.0 0.0 0.00 0.00 0.00 99 1023.3
20260509150850 50 223 0.0 0.0 0.00 0.00 0.00 99 1023.3
20260509150347 50 215 0.0 0.0 0.00 0.00 0.00 99 1023.1
20260509145844 50 225 0.0 0.0 0.00 0.00 0.00 99 1023.2
20260509145339 50 229 0.0 0.0 0.00 0.00 0.00 99 1023.2
20260509144835 49 212 0.0 0.0 0.00 0.00 0.00 99 1023.4
20260509144332 49 212 0.0 0.0 0.00 0.00 0.00 99 1023.3
20260509143829 48 212 0.0 0.0 0.00 0.00 0.00 99 1023.3
20260509143327 48 212 0.0 0.0 0.00 0.00 0.00 99 1023.2
20260509142823 48 212 0.0 0.0 0.00 0.00 0.00 99 1023.4
20260509142319 48 212 0.0 0.0 0.00 0.00 0.00 99 1023.4
20260509141815 47 212 0.0 0.0 0.00 0.00 0.00 99 1023.4
20260509141312 47 212 0.0 0.0 0.00 0.00 0.00 99 1023.4
20260509140808 47 212 0.0 0.0 0.00 0.00 0.00 99 1023.5
20260509140306 47 212 0.0 0.0 0.00 0.00 0.00 99 1023.4
20260509135803 47 212 0.0 0.0 0.00 0.00 0.00 99 1023.6
20260509135301 46 212 0.0 0.0 0.00 0.00 0.00 99 1023.4
20260509134758 46 212 0.0 0.0 0.00 0.00 0.00 99 1023.6
20260509134255 46 212 0.0 0.0 0.00 0.00 0.00 99 1023.5
20260509133752 46 212 0.0 0.0 0.00 0.00 0.00 99 1023.3
20260509133248 46 212 0.0 0.0 0.00 0.00 0.00 99 1023.6
20260509132748 46 212 0.0 0.0 0.00 0.00 0.00 99 1023.5
20260509132246 46 212 0.0 0.0 0.00 0.00 0.00 99 1023.5
20260509131742 45 212 0.0 0.0 0.00 0.00 0.00 99 1023.7
20260509131239 45 212 0.0 0.0 0.00 0.00 0.00 99 1023.7
20260509130735 46 212 0.0 0.0 0.00 0.00 0.00 99 1023.3
20260509130231 46 212 0.0 0.0 0.00 0.00 0.00 99 1023.4
20260509125727 46 212 0.0 0.0 0.00 0.00 0.00 99 1023.4
20260509125225 46 212 0.0 0.0 0.00 0.00 0.00 99 1023.4
20260509124721 45 212 0.0 0.0 0.00 0.00 0.00 99 1023.1
20260509124217 45 212 0.0 0.0 0.00 0.00 0.00 99 1023.3
20260509123716 46 212 0.0 0.0 0.00 0.00 0.00 99 1023.3
20260509123213 46 212 0.0 0.0 0.00 0.00 0.00 99 1023.1
20260509122708 46 212 0.0 0.0 0.00 0.00 0.00 99 1023.5
20260509122205 46 212 0.0 0.0 0.00 0.00 0.00 99 1023.7
20260509121702 46 212 0.0 0.0 0.00 0.00 0.00 99 1023.4
20260509121200 47 212 0.0 0.0 0.00 0.00 0.00 98 1023.7
20260509120658 47 212 0.0 0.0 0.00 0.00 0.00 98 1023.5
20260509120155 47 212 0.0 0.0 0.00 0.00 0.00 98 1023.6
20260509115653 47 212 0.0 0.0 0.00 0.00 0.00 98 1023.4
20260509115150 47 212 0.0 0.0 0.00 0.00 0.00 98 1023.6
20260509114648 47 212 0.0 0.0 0.00 0.00 0.00 98 1023.5
20260509114147 47 212 0.0 0.0 0.00 0.00 0.00 97 1023.9
20260509113645 47 212 0.0 0.0 0.00 0.00 0.00 97 1023.5
20260509113141 48 212 0.0 0.0 0.00 0.00 0.00 97 1023.6
20260509112638 48 212 0.0 0.0 0.00 0.00 0.00 97 1023.6
20260509112135 48 212 0.0 0.0 0.00 0.00 0.00 97 1023.6
20260509111632 48 212 0.0 0.0 0.00 0.00 0.00 96 1023.5
20260509111129 49 212 0.0 0.0 0.00 0.00 0.00 96 1023.8
20260509110626 49 212 0.0 0.0 0.00 0.00 0.00 96 1023.7
20260509110123 49 212 0.0 0.0 0.00 0.00 0.00 95 1023.8
20260509105622 49 212 0.0 0.0 0.00 0.00 0.00 95 1023.6
20260509105119 50 212 0.0 0.0 0.00 0.00 0.00 94 1023.6
20260509104616 50 212 0.0 0.0 0.00 0.00 0.00 93 1023.5
20260509104112 50 212 0.0 0.0 0.00 0.00 0.00 93 1023.7
20260509103610 51 212 0.0 0.0 0.00 0.00 0.00 92 1023.9
20260509103108 51 212 0.0 0.0 0.00 0.00 0.00 92 1023.6
20260509102605 52 212 0.0 0.0 0.00 0.00 0.00 91 1023.9
20260509102102 52 212 0.0 0.0 0.00 0.00 0.00 91 1024.0
20260509101558 52 212 0.0 0.0 0.00 0.00 0.00 91 1023.8
20260509101055 52 212 0.0 0.0 0.00 0.00 0.00 91 1023.8
20260509100552 52 212 0.0 0.0 0.00 0.00 0.00 91 1024.0
20260509100050 52 212 0.0 0.0 0.00 0.00 0.00 91 1023.9
20260509095546 52 212 0.0 0.9 0.00 0.00 0.00 90 1024.2
20260509095044 52 212 0.0 0.0 0.00 0.00 0.00 90 1024.2
20260509094539 52 212 0.0 0.0 0.00 0.00 0.00 90 1023.9
20260509094037 53 212 0.0 0.0 0.00 0.00 0.00 90 1024.0
20260509093535 53 212 0.0 0.0 0.00 0.00 0.00 89 1024.1
20260509093032 53 211 0.0 0.0 0.00 0.00 0.00 89 1024.1
20260509092530 53 212 0.0 0.0 0.00 0.00 0.00 89 1024.2
20260509092029 53 212 0.0 0.9 0.00 0.00 0.00 88 1024.4
20260509091526 53 213 0.0 2.6 0.00 0.00 0.00 88 1024.3
20260509091022 53 212 0.9 1.7 0.00 0.00 0.00 88 1024.3
20260509090520 53 213 0.0 1.7 0.00 0.00 0.00 87 1024.2
20260509090017 53 215 0.9 2.6 0.00 0.00 0.00 87 1024.4
20260509085514 53 212 0.0 1.7 0.00 0.00 0.00 88 1024.2
20260509085010 53 213 0.0 0.0 0.00 0.00 0.00 88 1024.3
20260509084507 53 211 0.0 1.7 0.00 0.00 0.00 88 1024.2
20260509084004 53 214 0.0 0.9 0.00 0.00 0.00 88 1024.2
20260509083502 52 212 0.0 0.0 0.00 0.00 0.00 89 1024.0
20260509082958 52 214 0.0 0.0 0.00 0.00 0.00 89 1024.1
20260509082456 52 215 0.9 1.7 0.00 0.00 0.00 90 1024.3
20260509081953 51 211 1.7 1.7 0.00 0.00 0.00 90 1024.2
20260509081450 51 213 0.0 0.9 0.00 0.00 0.00 90 1024.1
20260509080946 51 212 0.0 0.0 0.00 0.00 0.00 90 1024.2
20260509080445 51 212 0.0 2.6 0.00 0.00 0.00 90 1024.1
20260509075943 51 213 0.0 0.0 0.00 0.00 0.00 91 1024.2
20260509075439 51 213 0.0 0.0 0.00 0.00 0.00 92 1024.4
20260509074938 50 213 0.0 0.0 0.00 0.00 0.00 92 1024.0
20260509074435 50 213 0.0 0.0 0.00 0.00 0.00 92 1024.3
20260509073931 50 213 0.0 0.0 0.00 0.00 0.00 92 1024.3
20260509073427 50 213 0.0 0.0 0.00 0.00 0.00 92 1024.5
20260509072918 50 213 0.0 0.0 0.00 0.00 0.00 92 1024.2
20260509072415 50 213 0.0 0.0 0.00 0.00 0.00 91 1024.2
20260509071911 50 213 0.0 0.0 0.00 0.00 0.00 91 1024.1
20260509071409 50 212 0.0 0.0 0.00 0.00 0.00 91 1024.0
20260509070906 50 212 0.0 0.0 0.00 0.00 0.00 91 1024.2
20260509070403 50 212 0.0 0.0 0.00 0.00 0.00 91 1024.1
20260509065858 50 212 0.0 0.0 0.00 0.00 0.00 91 1023.9
20260509065355 50 212 0.0 0.0 0.00 0.00 0.00 90 1024.3
20260509064851 50 212 0.0 0.0 0.00 0.00 0.00 90 1024.1
20260509064349 51 212 0.0 0.0 0.00 0.00 0.00 90 1023.8
20260509063846 50 212 0.0 0.0 0.00 0.00 0.00 90 1024.0
20260509063342 50 212 0.0 0.0 0.00 0.00 0.00 90 1023.9
20260509062839 50 212 0.0 0.0 0.00 0.00 0.00 90 1023.7
20260509062336 50 212 0.0 0.0 0.00 0.00 0.00 90 1023.9
20260509061833 50 212 0.0 0.0 0.00 0.00 0.00 89 1023.9
20260509061332 51 212 0.0 0.0 0.00 0.00 0.00 89 1023.9
20260509060828 51 212 0.0 0.0 0.00 0.00 0.00 88 1023.9
20260509060325 51 212 0.0 0.0 0.00 0.00 0.00 88 1024.0
20260509055821 51 212 0.0 0.0 0.00 0.00 0.00 88 1023.8
20260509055316 51 212 0.0 0.0 0.00 0.00 0.00 88 1023.6
20260509054814 51 212 0.0 0.0 0.00 0.00 0.00 87 1023.7
20260509054310 51 212 0.0 0.0 0.00 0.00 0.00 87 1023.6
20260509053809 52 213 0.0 0.0 0.00 0.00 0.00 86 1023.7
20260509053305 52 213 0.0 0.0 0.00 0.00 0.00 85 1023.9
20260509052803 53 213 0.0 0.0 0.00 0.00 0.00 84 1023.6
20260509052301 53 213 0.0 0.0 0.00 0.00 0.00 83 1023.8
20260509051758 53 213 0.0 0.0 0.00 0.00 0.00 82 1023.7
20260509051256 53 213 0.0 0.0 0.00 0.00 0.00 82 1023.8
20260509050752 54 211 0.0 0.0 0.00 0.00 0.00 82 1023.8
20260509050249 54 213 0.9 0.9 0.00 0.00 0.00 81 1023.6
20260509045746 54 214 0.0 0.0 0.00 0.00 0.00 81 1023.8
20260509045243 54 216 0.0 0.0 0.00 0.00 0.00 80 1023.6
20260509044740 55 216 0.0 0.0 0.00 0.00 0.00 79 1023.7
20260509044238 55 216 0.0 0.0 0.00 0.00 0.00 78 1023.7
20260509043734 55 218 0.0 0.0 0.00 0.00 0.00 77 1023.5
20260509043230 56 211 0.0 0.9 0.00 0.00 0.00 77 1023.5
20260509042726 56 213 0.0 0.9 0.00 0.00 0.00 77 1023.4
20260509042222 56 210 0.0 2.6 0.00 0.00 0.00 75 1023.2
20260509041714 56 208 1.7 2.6 0.00 0.00 0.00 75 1023.5
20260509041211 56 213 0.0 0.9 0.00 0.00 0.00 75 1023.4
20260509040709 56 216 0.0 1.7 0.00 0.00 0.00 76 1023.5
20260509040206 56 211 0.0 1.7 0.00 0.00 0.00 76 1023.4
20260509035703 56 213 0.0 0.0 0.00 0.00 0.00 76 1023.2
20260509035159 56 213 0.0 0.0 0.00 0.00 0.00 75 1023.0
20260509034657 57 213 0.0 0.9 0.00 0.00 0.00 74 1023.2
20260509034154 57 211 0.0 0.0 0.00 0.00 0.00 74 1022.7
20260509033651 57 217 0.0 0.0 0.00 0.00 0.00 75 1022.5
20260509033148 57 217 0.0 0.9 0.00 0.00 0.00 73 1022.7
20260509032645 57 218 0.0 0.0 0.00 0.00 0.00 73 1022.9
20260509032142 58 214 0.0 0.0 0.00 0.00 0.00 72 1022.6
20260509031640 58 215 0.0 0.0 0.00 0.00 0.00 72 1022.7
20260509031137 59 222 0.0 0.9 0.00 0.00 0.00 70 1022.5
20260509030635 59 242 0.9 1.7 0.00 0.00 0.00 68 1022.6
20260509030132 59 226 2.6 2.6 0.00 0.00 0.00 68 1022.4
20260509025628 60 226 0.9 2.6 0.00 0.00 0.00 68 1022.4
20260509025124 60 226 0.9 1.7 0.00 0.00 0.00 68 1022.5
20260509024619 60 215 0.9 5.2 0.00 0.00 0.00 67 1022.4
20260509024115 61 234 2.6 4.3 0.00 0.00 0.00 65 1022.4
20260509023614 61 241 2.6 4.3 0.00 0.00 0.00 64 1022.4
20260509023110 61 244 0.9 4.3 0.00 0.00 0.00 63 1022.6
20260509022607 62 217 2.6 4.3 0.00 0.00 0.00 61 1022.5
20260509022105 62 246 2.6 2.6 0.00 0.00 0.00 61 1022.4
20260509021601 62 230 2.6 4.3 0.00 0.00 0.00 60 1022.5
20260509021058 62 255 0.9 1.7 0.00 0.00 0.00 61 1022.5
20260509020556 62 213 1.7 2.6 0.00 0.00 0.00 61 1022.4
20260509020053 62 228 1.7 5.2 0.00 0.00 0.00 60 1022.4
20260509015547 63 228 0.9 1.7 0.00 0.00 0.00 60 1022.2
20260509015043 63 216 0.9 1.7 0.00 0.00 0.00 59 1022.3
20260509014540 63 235 2.6 5.2 0.00 0.00 0.00 58 1022.2
20260509014036 63 245 0.9 4.3 0.00 0.00 0.00 59 1022.4
20260509013533 64 263 2.6 2.6 0.00 0.00 0.00 57 1022.3
20260509013029 64 221 0.9 2.6 0.00 0.00 0.00 57 1022.2
20260509012526 63 219 2.6 2.6 0.00 0.00 0.00 56 1022.4
20260509012022 64 243 2.6 2.6 0.00 0.00 0.00 57 1022.4
20260509011521 64 255 1.7 2.6 0.00 0.00 0.00 58 1022.4
20260509011018 64 225 2.6 2.6 0.00 0.00 0.00 57 1022.4
20260509010515 64 238 2.6 2.6 0.00 0.00 0.00 55 1022.4
20260509010012 64 215 2.6 4.3 0.00 0.00 0.00 55 1022.5
20260509005510 64 228 1.7 2.6 0.00 0.00 0.00 57 1022.5
20260509005009 64 234 2.6 5.2 0.00 0.00 0.00 57 1022.5